ETH365 HDAM-HAAB

Flight info

Callsign ETH365
Flight time 0h 48m
Altitude 34000
Route LAKBE1G LAKBE LAKBE2A
Aircraft B38M/M-SDE1FGHILORVWXY/HB1

Departure

Time 2026-05-04 20:51
Airport Djibouti-Ambouli Airport (HDAM)

Arrival

Time 2026-05-04 21:39
Airport Addis Ababa Bole International Airport (HAAB)
Time Latitude Longitude Altitude Speed Heading
2026-05-04 20:25 11.55122 43.15004 62 ft 0 kts
2026-05-04 20:39 11.55120 43.15004 65 ft 3 kts 360°
2026-05-04 20:40 11.55100 43.15005 54 ft 3 kts 360°
2026-05-04 20:40 11.55079 43.15005 57 ft 3 kts 359°
2026-05-04 20:40 11.55059 43.15005 59 ft 3 kts 357°
2026-05-04 20:40 11.55039 43.15007 62 ft 3 kts 352°
2026-05-04 20:41 11.55022 43.15011 53 ft 2 kts 336°
2026-05-04 20:41 11.55012 43.15017 57 ft 2 kts 307°
2026-05-04 20:41 11.55007 43.15027 60 ft 2 kts 284°
2026-05-04 20:41 11.55005 43.15036 57 ft 1 kts 276°
2026-05-04 20:42 11.55005 43.15044 56 ft 1 kts 273°
2026-05-04 20:42 11.55005 43.15048 60 ft 0 kts 272°
2026-05-04 20:46 11.55007 43.14999 59 ft 15 kts 272°
2026-05-04 20:46 11.55008 43.14859 62 ft 21 kts 270°
2026-05-04 20:47 11.55010 43.14703 62 ft 22 kts 270°
2026-05-04 20:47 11.54944 43.14608 62 ft 19 kts 181°
2026-05-04 20:47 11.54809 43.14609 57 ft 20 kts 180°
2026-05-04 20:47 11.54782 43.14567 60 ft 10 kts 318°
2026-05-04 20:48 11.54781 43.14546 59 ft 6 kts 176°
2026-05-04 20:48 11.54752 43.14615 59 ft 15 kts 89°
2026-05-04 20:48 11.54752 43.14633 63 ft 0 kts 91°
2026-05-04 20:50 11.54752 43.14636 63 ft 6 kts 91°
2026-05-04 20:50 11.54748 43.14929 64 ft 78 kts 91°
2026-05-04 20:50 11.54737 43.15720 65 ft 143 kts 91°
2026-05-04 20:50 11.54719 43.16902 298 ft 178 kts 91°
2026-05-04 20:51 11.54685 43.18183 992 ft 188 kts 92°
2026-05-04 20:51 11.54438 43.19542 1594 ft 207 kts 115°
2026-05-04 20:51 11.53459 43.20688 2033 ft 227 kts 149°
2026-05-04 20:51 11.51836 43.20971 2384 ft 247 kts 187°
2026-05-04 20:52 11.50283 43.20450 3471 ft 234 kts 206°
2026-05-04 20:52 11.49361 43.19833 3736 ft 248 kts 220°
2026-05-04 20:52 11.48268 43.18405 3820 ft 264 kts 240°
2026-05-04 20:52 11.47365 43.16752 4153 ft 269 kts 242°
2026-05-04 20:53 11.46506 43.15025 4656 ft 275 kts 244°
2026-05-04 20:53 11.45670 43.13242 5168 ft 282 kts 244°
2026-05-04 20:53 11.44830 43.11429 5381 ft 284 kts 244°
2026-05-04 20:53 11.43708 43.09013 5688 ft 285 kts 244°
2026-05-04 20:54 11.43143 43.07774 5948 ft 287 kts 244°
2026-05-04 20:54 11.42313 43.05915 6322 ft 289 kts 244°
2026-05-04 20:54 11.41475 43.04039 6740 ft 295 kts 246°
2026-05-04 20:54 11.40670 43.02078 7349 ft 303 kts 241°
2026-05-04 20:55 11.39649 43.00189 8114 ft 307 kts 240°
2026-05-04 20:55 11.38626 42.98254 8821 ft 313 kts 241°
2026-05-04 20:55 11.37598 42.96282 9559 ft 318 kts 241°
2026-05-04 20:55 11.36561 42.94268 10221 ft 325 kts 242°
2026-05-04 20:56 11.35505 42.92205 10648 ft 340 kts 242°
2026-05-04 20:56 11.34386 42.90010 10984 ft 358 kts 242°
2026-05-04 20:56 11.33214 42.87711 11297 ft 374 kts 242°
2026-05-04 20:56 11.32073 42.85283 11690 ft 385 kts 249°
2026-05-04 20:57 11.31083 42.82747 12428 ft 385 kts 248°
2026-05-04 20:57 11.30075 42.80212 13104 ft 388 kts 248°
2026-05-04 20:57 11.29047 42.77654 13743 ft 391 kts 248°
2026-05-04 20:57 11.28005 42.75081 14339 ft 394 kts 248°
2026-05-04 20:58 11.26956 42.72494 14945 ft 396 kts 248°
2026-05-04 20:58 11.25899 42.69888 15522 ft 399 kts 248°
2026-05-04 20:58 11.24835 42.67266 16078 ft 402 kts 248°
2026-05-04 20:58 11.23764 42.64628 16633 ft 405 kts 247°
2026-05-04 20:59 11.22682 42.61965 17164 ft 408 kts 247°
2026-05-04 20:59 11.21592 42.59282 17675 ft 411 kts 247°
2026-05-04 20:59 11.20495 42.56582 18180 ft 415 kts 247°
2026-05-04 20:59 11.19388 42.53858 18606 ft 417 kts 247°
2026-05-04 21:00 11.18274 42.51119 19069 ft 419 kts 247°
2026-05-04 21:00 11.17157 42.48373 19506 ft 421 kts 247°
2026-05-04 21:00 11.16035 42.45615 19939 ft 423 kts 247°
2026-05-04 21:00 11.14905 42.42839 20358 ft 425 kts 247°
2026-05-04 21:01 11.13769 42.40049 20773 ft 427 kts 247°
2026-05-04 21:01 11.12629 42.37250 21182 ft 429 kts 247°
2026-05-04 21:01 11.11482 42.34434 21589 ft 431 kts 248°
2026-05-04 21:01 11.10328 42.31604 21977 ft 434 kts 248°
2026-05-04 21:02 11.09170 42.28763 22363 ft 436 kts 248°
2026-05-04 21:02 11.08003 42.25899 22739 ft 438 kts 248°
2026-05-04 21:02 11.06832 42.23030 23123 ft 441 kts 248°
2026-05-04 21:02 11.05653 42.20140 23455 ft 443 kts 248°
2026-05-04 21:03 11.04458 42.17241 23763 ft 445 kts 245°
2026-05-04 21:03 11.02824 42.14576 24080 ft 445 kts 232°
2026-05-04 21:03 11.00973 42.12037 24379 ft 448 kts 233°
2026-05-04 21:03 10.99113 42.09481 24655 ft 450 kts 233°
2026-05-04 21:04 10.97237 42.06929 24972 ft 451 kts 233°
2026-05-04 21:04 10.95348 42.04370 25275 ft 453 kts 233°
2026-05-04 21:04 10.93455 42.01806 25566 ft 455 kts 233°
2026-05-04 21:04 10.91551 41.99230 25880 ft 456 kts 233°
2026-05-04 21:05 10.89641 41.96647 26162 ft 458 kts 233°
2026-05-04 21:05 10.87726 41.94059 26446 ft 459 kts 233°
2026-05-04 21:05 10.85802 41.91457 26733 ft 461 kts 233°
2026-05-04 21:05 10.83899 41.88885 27010 ft 462 kts 233°
2026-05-04 21:06 10.81961 41.86267 27286 ft 464 kts 233°
2026-05-04 21:06 10.80018 41.83642 27563 ft 465 kts 233°
2026-05-04 21:06 10.78066 41.81006 27822 ft 467 kts 233°
2026-05-04 21:06 10.76084 41.78330 28095 ft 468 kts 233°
2026-05-04 21:07 10.74148 41.75716 28354 ft 470 kts 233°
2026-05-04 21:07 10.72177 41.73057 28618 ft 471 kts 233°
2026-05-04 21:07 10.70203 41.70394 28865 ft 473 kts 233°
2026-05-04 21:07 10.68219 41.67718 29118 ft 474 kts 233°
2026-05-04 21:08 10.66229 41.65034 29366 ft 476 kts 233°
2026-05-04 21:08 10.64235 41.62345 29600 ft 477 kts 233°
2026-05-04 21:08 10.62232 41.59646 29843 ft 479 kts 233°
2026-05-04 21:08 10.60223 41.56939 30048 ft 480 kts 233°
2026-05-04 21:09 10.58211 41.54228 30240 ft 482 kts 233°
2026-05-04 21:09 10.56191 41.51507 30465 ft 482 kts 233°
2026-05-04 21:09 10.54171 41.48788 30729 ft 482 kts 233°
2026-05-04 21:09 10.52156 41.46074 30990 ft 481 kts 233°
2026-05-04 21:10 10.50140 41.43361 31248 ft 481 kts 233°
2026-05-04 21:10 10.48123 41.40647 31530 ft 481 kts 233°
2026-05-04 21:10 10.46106 41.37934 31800 ft 481 kts 233°
2026-05-04 21:10 10.44095 41.35229 32077 ft 480 kts 233°
2026-05-04 21:11 10.42079 41.32518 32352 ft 480 kts 233°
2026-05-04 21:11 10.40067 41.29814 32629 ft 480 kts 233°
2026-05-04 21:11 10.38057 41.27113 32905 ft 480 kts 233°
2026-05-04 21:11 10.36045 41.24409 33185 ft 479 kts 233°
2026-05-04 21:12 10.34034 41.21708 33469 ft 479 kts 233°
2026-05-04 21:12 10.32026 41.19012 33759 ft 479 kts 233°
2026-05-04 21:12 10.30015 41.16312 33872 ft 479 kts 233°
2026-05-04 21:12 10.28006 41.13615 33883 ft 478 kts 233°
2026-05-04 21:13 10.23998 41.08236 33873 ft 478 kts 233°
2026-05-04 21:13 10.19985 41.02854 33877 ft 478 kts 232°
2026-05-04 21:14 10.15968 40.97470 33878 ft 479 kts 232°
2026-05-04 21:14 10.11974 40.92118 33877 ft 479 kts 232°
2026-05-04 21:15 10.07950 40.86729 33888 ft 479 kts 232°
2026-05-04 21:15 10.03928 40.81344 33889 ft 479 kts 232°
2026-05-04 21:16 9.99908 40.75965 33894 ft 478 kts 232°
2026-05-04 21:16 9.95886 40.70586 33905 ft 478 kts 232°
2026-05-04 21:17 9.91864 40.65209 33912 ft 479 kts 232°
2026-05-04 21:17 9.87841 40.59833 33919 ft 479 kts 232°
2026-05-04 21:18 9.83818 40.54460 33926 ft 478 kts 232°
2026-05-04 21:18 9.79800 40.49097 33932 ft 477 kts 232°
2026-05-04 21:19 9.75785 40.43737 33935 ft 477 kts 232°
2026-05-04 21:19 9.71768 40.38379 33949 ft 477 kts 232°
2026-05-04 21:20 9.67960 40.32884 33953 ft 477 kts 237°
2026-05-04 21:20 9.64352 40.27242 33958 ft 477 kts 236°
2026-05-04 21:21 9.60713 40.21631 33967 ft 476 kts 236°
2026-05-04 21:21 9.57069 40.16023 33978 ft 476 kts 236°
2026-05-04 21:22 9.53424 40.10417 33995 ft 476 kts 236°
2026-05-04 21:22 9.49782 40.04819 34008 ft 476 kts 236°
2026-05-04 21:23 9.46138 39.99219 34020 ft 476 kts 236°
2026-05-04 21:23 9.42517 39.93659 34035 ft 476 kts 236°
2026-05-04 21:24 9.38869 39.88057 34052 ft 476 kts 236°
2026-05-04 21:24 9.35221 39.82459 34067 ft 477 kts 236°
2026-05-04 21:25 9.31559 39.76843 33812 ft 478 kts 236°
2026-05-04 21:25 9.29727 39.74034 33039 ft 478 kts 236°
2026-05-04 21:25 9.27893 39.71221 32281 ft 479 kts 236°
2026-05-04 21:26 9.26058 39.68409 31550 ft 480 kts 237°
2026-05-04 21:26 9.24216 39.65587 30789 ft 481 kts 237°
2026-05-04 21:26 9.22366 39.62753 29959 ft 484 kts 237°
2026-05-04 21:26 9.20508 39.59908 29004 ft 486 kts 237°
2026-05-04 21:27 9.18640 39.57048 28124 ft 487 kts 237°
2026-05-04 21:27 9.16768 39.54182 27323 ft 487 kts 236°
2026-05-04 21:27 9.14907 39.51333 26609 ft 485 kts 236°
2026-05-04 21:27 9.13047 39.48488 25873 ft 484 kts 236°
2026-05-04 21:28 9.11190 39.45646 25138 ft 483 kts 236°
2026-05-04 21:28 9.09336 39.42810 24400 ft 483 kts 236°
2026-05-04 21:28 9.07483 39.39978 23671 ft 482 kts 236°
2026-05-04 21:28 9.05637 39.37155 22839 ft 481 kts 236°
2026-05-04 21:29 9.03800 39.34346 22110 ft 477 kts 236°
2026-05-04 21:29 9.01976 39.31559 21412 ft 473 kts 236°
2026-05-04 21:29 9.00166 39.28793 20695 ft 470 kts 236°
2026-05-04 21:29 8.98421 39.26016 20067 ft 465 kts 242°
2026-05-04 21:30 8.97269 39.22973 19288 ft 463 kts 258°
2026-05-04 21:30 8.96800 39.19856 18757 ft 446 kts 263°
2026-05-04 21:30 8.96545 39.17771 18166 ft 439 kts 264°
2026-05-04 21:30 8.96115 39.13926 17337 ft 436 kts 264°
2026-05-04 21:31 8.95497 39.07920 16223 ft 411 kts 265°
2026-05-04 21:31 8.95220 39.05133 15678 ft 397 kts 265°
2026-05-04 21:31 8.94944 39.02360 15124 ft 385 kts 265°
2026-05-04 21:32 8.94684 38.99744 14590 ft 375 kts 265°
2026-05-04 21:32 8.94427 38.97150 14042 ft 366 kts 266°
2026-05-04 21:32 8.94175 38.94622 13427 ft 357 kts 265°
2026-05-04 21:32 8.93638 38.92222 13027 ft 344 kts 245°
2026-05-04 21:33 8.92495 38.90221 13073 ft 319 kts 240°
2026-05-04 21:33 8.91416 38.88316 13022 ft 306 kts 240°
2026-05-04 21:33 8.90344 38.86442 12887 ft 310 kts 240°
2026-05-04 21:33 8.89252 38.84550 12756 ft 311 kts 240°
2026-05-04 21:34 8.88159 38.82667 12713 ft 311 kts 240°
2026-05-04 21:34 8.87071 38.80796 12713 ft 302 kts 240°
2026-05-04 21:34 8.86043 38.79030 12692 ft 282 kts 240°
2026-05-04 21:34 8.85028 38.77288 12553 ft 303 kts 240°
2026-05-04 21:35 8.83992 38.75367 12216 ft 311 kts 250°
2026-05-04 21:35 8.83685 38.73263 11854 ft 298 kts 278°
2026-05-04 21:35 8.84371 38.71289 11504 ft 311 kts 306°
2026-05-04 21:35 8.85973 38.69743 11040 ft 330 kts 333°
2026-05-04 21:36 8.88078 38.69144 10627 ft 304 kts
2026-05-04 21:36 8.90040 38.69584 10199 ft 280 kts 29°
2026-05-04 21:36 8.91592 38.70668 9738 ft 265 kts 33°
2026-05-04 21:36 8.93246 38.71394 9288 ft 254 kts 21°
2026-05-04 21:37 8.94796 38.72132 8926 ft 239 kts 40°
2026-05-04 21:37 8.95725 38.73411 8499 ft 220 kts 68°
2026-05-04 21:37 8.96176 38.74804 8221 ft 202 kts 73°
2026-05-04 21:37 8.96544 38.76097 8042 ft 179 kts 72°
2026-05-04 21:38 8.96899 38.77251 7911 ft 170 kts 71°
2026-05-04 21:38 8.97250 38.78424 7701 ft 177 kts 72°
2026-05-04 21:38 8.97582 38.79541 7621 ft 143 kts 74°
2026-05-04 21:38 8.97796 38.80270 7624 ft 79 kts 74°
2026-05-04 21:39 8.97948 38.80638 7622 ft 34 kts 46°
2026-05-04 21:39 8.98011 38.80698 7622 ft 9 kts 45°
2026-05-04 21:39 8.98060 38.80744 7621 ft 10 kts 30°
2026-05-04 21:39 8.98111 38.80723 7621 ft 9 kts 292°
2026-05-04 21:40 8.98104 38.80652 7622 ft 13 kts 253°
2026-05-04 21:40 8.98083 38.80583 7622 ft 17 kts 253°
2026-05-04 21:40 8.98050 38.80464 7623 ft 17 kts 254°
2026-05-04 21:40 8.98023 38.80357 7624 ft 13 kts 276°
2026-05-04 21:41 8.98111 38.80310 7622 ft 10 kts 345°
2026-05-04 21:41 8.98150 38.80320 7622 ft 9 kts 55°
2026-05-04 21:41 8.98169 38.80329 7621 ft 1 kts 332°
2026-05-04 21:41 8.98173 38.80308 7623 ft 4 kts 252°
2026-05-04 21:42 8.98127 38.80306 7622 ft 11 kts 169°
2026-05-04 21:42 8.98031 38.80333 7625 ft 17 kts 164°
2026-05-04 21:42 8.97989 38.80269 7629 ft 19 kts 257°
2026-05-04 21:42 8.98042 38.80157 7623 ft 24 kts 347°
2026-05-04 21:43 8.98192 38.80117 7621 ft 19 kts 344°
2026-05-04 21:43 8.98283 38.80069 7621 ft 14 kts 292°
2026-05-04 21:43 8.98264 38.79978 7621 ft 13 kts 254°
2026-05-04 21:43 8.98237 38.79887 7621 ft 14 kts 253°
2026-05-04 21:44 8.98210 38.79795 7621 ft 14 kts 254°
2026-05-04 21:44 8.98183 38.79704 7621 ft 14 kts 249°
2026-05-04 21:44 8.98125 38.79639 7621 ft 8 kts 217°
2026-05-04 21:44 8.98100 38.79592 7621 ft 8 kts 253°
2026-05-04 21:45 8.98087 38.79547 7621 ft 6 kts 248°
2026-05-04 21:45 8.98069 38.79535 7621 ft 1 kts 166°
2026-05-04 21:45 8.98053 38.79542 7621 ft 5 kts 159°
2026-05-04 21:45 8.98015 38.79554 7621 ft 6 kts 165°
2026-05-04 21:46 8.97996 38.79559 7621 ft 0 kts 164°